#datetime,building,power
2023-07-26T00:00:00,sdl,9.57
2023-07-26T00:01:00,sdl,9.78
2023-07-26T00:02:00,sdl,9.44
2023-07-26T00:03:00,sdl,9.44
2023-07-26T00:04:00,sdl,9.48
2023-07-26T00:05:00,sdl,9.63
2023-07-26T00:06:00,sdl,7.98
2023-07-26T00:07:00,sdl,13.78
2023-07-26T00:08:00,sdl,11.19
2023-07-26T00:09:00,sdl,11.57
2023-07-26T00:10:00,sdl,11.73
2023-07-26T00:11:00,sdl,12.56
2023-07-26T00:12:00,sdl,11.99
2023-07-26T00:13:00,sdl,12.26
2023-07-26T00:14:00,sdl,13.01
2023-07-26T00:15:00,sdl,10.88
2023-07-26T00:16:00,sdl,10.86
2023-07-26T00:17:00,sdl,10.92
2023-07-26T00:18:00,sdl,11.21
2023-07-26T00:19:00,sdl,11.00
2023-07-26T00:20:00,sdl,11.09
2023-07-26T00:21:00,sdl,11.16
2023-07-26T00:22:00,sdl,11.12
2023-07-26T00:23:00,sdl,11.54
2023-07-26T00:24:00,sdl,11.15
2023-07-26T00:25:00,sdl,11.21
2023-07-26T00:26:00,sdl,11.09
2023-07-26T00:27:00,sdl,10.84
2023-07-26T00:28:00,sdl,10.88
2023-07-26T00:29:00,sdl,10.99
2023-07-26T00:30:00,sdl,11.11
2023-07-26T00:31:00,sdl,13.20
2023-07-26T00:32:00,sdl,13.04
2023-07-26T00:33:00,sdl,13.15
2023-07-26T00:34:00,sdl,13.17
2023-07-26T00:35:00,sdl,13.34
2023-07-26T00:36:00,sdl,13.23
2023-07-26T00:37:00,sdl,13.49
2023-07-26T00:38:00,sdl,13.12
2023-07-26T00:39:00,sdl,13.19
2023-07-26T00:40:00,sdl,13.30
2023-07-26T00:41:00,sdl,11.02
2023-07-26T00:42:00,sdl,9.36
2023-07-26T00:43:00,sdl,8.80
2023-07-26T00:44:00,sdl,9.10
2023-07-26T00:45:00,sdl,9.09
2023-07-26T00:46:00,sdl,9.13
2023-07-26T00:47:00,sdl,9.43
2023-07-26T00:48:00,sdl,10.28
2023-07-26T00:49:00,sdl,10.20
2023-07-26T00:50:00,sdl,10.86
2023-07-26T00:51:00,sdl,10.83
2023-07-26T00:52:00,sdl,10.96
2023-07-26T00:53:00,sdl,11.48
2023-07-26T00:54:00,sdl,11.64
2023-07-26T00:55:00,sdl,12.24
2023-07-26T00:56:00,sdl,11.10
2023-07-26T00:57:00,sdl,11.16
2023-07-26T00:58:00,sdl,11.12
2023-07-26T00:59:00,sdl,11.56
2023-07-26T01:00:00,sdl,11.24
2023-07-26T01:01:00,sdl,10.69
2023-07-26T01:02:00,sdl,10.67
2023-07-26T01:03:00,sdl,11.40
2023-07-26T01:04:00,sdl,11.13
2023-07-26T01:05:00,sdl,6.48
2023-07-26T01:06:00,sdl,6.55
2023-07-26T01:07:00,sdl,6.61
2023-07-26T01:08:00,sdl,7.00
2023-07-26T01:09:00,sdl,6.41
2023-07-26T01:10:00,sdl,6.32
2023-07-26T01:11:00,sdl,6.26
2023-07-26T01:12:00,sdl,6.28
2023-07-26T01:13:00,sdl,5.06
2023-07-26T01:14:00,sdl,3.56
2023-07-26T01:15:00,sdl,3.56
2023-07-26T01:16:00,sdl,3.50
2023-07-26T01:17:00,sdl,3.48
2023-07-26T01:18:00,sdl,3.97
2023-07-26T01:19:00,sdl,5.18
2023-07-26T01:20:00,sdl,3.12
2023-07-26T01:21:00,sdl,3.63
2023-07-26T01:22:00,sdl,3.84
2023-07-26T01:23:00,sdl,4.30
2023-07-26T01:24:00,sdl,4.15
2023-07-26T01:25:00,sdl,3.94
2023-07-26T01:26:00,sdl,4.17
2023-07-26T01:27:00,sdl,4.15
2023-07-26T01:28:00,sdl,4.05
2023-07-26T01:29:00,sdl,4.05
2023-07-26T01:30:00,sdl,4.48
2023-07-26T01:31:00,sdl,4.32
2023-07-26T01:32:00,sdl,4.03
2023-07-26T01:33:00,sdl,4.04
2023-07-26T01:34:00,sdl,4.01
2023-07-26T01:35:00,sdl,2.42
2023-07-26T01:36:00,sdl,1.42
2023-07-26T01:37:00,sdl,1.51
2023-07-26T01:38:00,sdl,1.37
2023-07-26T01:39:00,sdl,1.45
2023-07-26T01:40:00,sdl,3.71
2023-07-26T01:41:00,sdl,3.74
2023-07-26T01:42:00,sdl,5.15
2023-07-26T01:43:00,sdl,5.49
2023-07-26T01:44:00,sdl,5.78
2023-07-26T01:45:00,sdl,6.19
2023-07-26T01:46:00,sdl,6.25
2023-07-26T01:47:00,sdl,6.55
2023-07-26T01:48:00,sdl,6.54
2023-07-26T01:49:00,sdl,6.13
2023-07-26T01:50:00,sdl,3.79
2023-07-26T01:51:00,sdl,3.69
2023-07-26T01:52:00,sdl,3.63
2023-07-26T01:53:00,sdl,3.60
2023-07-26T01:54:00,sdl,3.60
2023-07-26T01:55:00,sdl,4.68
2023-07-26T01:56:00,sdl,3.85
2023-07-26T01:57:00,sdl,3.58
2023-07-26T01:58:00,sdl,3.52
2023-07-26T01:59:00,sdl,3.65
2023-07-26T02:00:00,sdl,2.05
2023-07-26T02:01:00,sdl,3.58
2023-07-26T02:02:00,sdl,4.20
2023-07-26T02:03:00,sdl,3.86
2023-07-26T02:04:00,sdl,4.30
2023-07-26T02:05:00,sdl,4.56
2023-07-26T02:06:00,sdl,9.37
2023-07-26T02:07:00,sdl,12.47
2023-07-26T02:08:00,sdl,12.54
2023-07-26T02:09:00,sdl,12.60
2023-07-26T02:10:00,sdl,12.80
2023-07-26T02:11:00,sdl,13.28
2023-07-26T02:12:00,sdl,13.61
2023-07-26T02:13:00,sdl,13.58
2023-07-26T02:14:00,sdl,13.60
2023-07-26T02:15:00,sdl,13.61
2023-07-26T02:16:00,sdl,13.78
2023-07-26T02:17:00,sdl,13.98
2023-07-26T02:18:00,sdl,13.83
2023-07-26T02:19:00,sdl,14.41
2023-07-26T02:20:00,sdl,14.47
2023-07-26T02:21:00,sdl,14.56
2023-07-26T02:22:00,sdl,13.30
2023-07-26T02:23:00,sdl,13.52
2023-07-26T02:24:00,sdl,13.51
2023-07-26T02:25:00,sdl,14.39
2023-07-26T02:26:00,sdl,14.23
2023-07-26T02:27:00,sdl,12.14
2023-07-26T02:28:00,sdl,12.31
2023-07-26T02:29:00,sdl,12.35
2023-07-26T02:30:00,sdl,13.04
2023-07-26T02:31:00,sdl,13.05
2023-07-26T02:32:00,sdl,13.05
2023-07-26T02:33:00,sdl,12.88
2023-07-26T02:34:00,sdl,12.71
2023-07-26T02:35:00,sdl,12.80
2023-07-26T02:36:00,sdl,12.77
2023-07-26T02:37:00,sdl,12.79
2023-07-26T02:38:00,sdl,12.78
2023-07-26T02:39:00,sdl,12.80
2023-07-26T02:40:00,sdl,12.83
2023-07-26T02:41:00,sdl,12.80
2023-07-26T02:42:00,sdl,12.76
2023-07-26T02:43:00,sdl,12.76
2023-07-26T02:44:00,sdl,13.04
2023-07-26T02:45:00,sdl,11.86
2023-07-26T02:46:00,sdl,12.02
2023-07-26T02:47:00,sdl,11.72
2023-07-26T02:48:00,sdl,11.65
2023-07-26T02:49:00,sdl,11.67
2023-07-26T02:50:00,sdl,11.60
2023-07-26T02:51:00,sdl,11.53
2023-07-26T02:52:00,sdl,12.95
2023-07-26T02:53:00,sdl,12.34
2023-07-26T02:54:00,sdl,12.34
2023-07-26T02:55:00,sdl,12.28
2023-07-26T02:56:00,sdl,12.30
2023-07-26T02:57:00,sdl,12.22
2023-07-26T02:58:00,sdl,12.49
2023-07-26T02:59:00,sdl,12.21
2023-07-26T03:00:00,sdl,14.50
2023-07-26T03:01:00,sdl,14.62
2023-07-26T03:02:00,sdl,14.44
2023-07-26T03:03:00,sdl,14.89
2023-07-26T03:04:00,sdl,14.59
2023-07-26T03:05:00,sdl,13.57
2023-07-26T03:06:00,sdl,13.54
2023-07-26T03:07:00,sdl,13.54
2023-07-26T03:08:00,sdl,13.45
2023-07-26T03:09:00,sdl,13.37
2023-07-26T03:10:00,sdl,13.64
2023-07-26T03:11:00,sdl,13.53
2023-07-26T03:12:00,sdl,13.34
2023-07-26T03:13:00,sdl,13.57
2023-07-26T03:14:00,sdl,11.75
2023-07-26T03:15:00,sdl,11.64
2023-07-26T03:16:00,sdl,11.65
2023-07-26T03:17:00,sdl,11.79
2023-07-26T03:18:00,sdl,11.86
2023-07-26T03:19:00,sdl,11.77
2023-07-26T03:20:00,sdl,11.82
2023-07-26T03:21:00,sdl,11.81
2023-07-26T03:22:00,sdl,11.82
2023-07-26T03:23:00,sdl,12.03
2023-07-26T03:24:00,sdl,11.72
2023-07-26T03:25:00,sdl,11.79
2023-07-26T03:26:00,sdl,10.89
2023-07-26T03:27:00,sdl,10.89
2023-07-26T03:28:00,sdl,13.00
2023-07-26T03:29:00,sdl,13.06
2023-07-26T03:30:00,sdl,13.09
2023-07-26T03:31:00,sdl,13.02
2023-07-26T03:32:00,sdl,13.11
2023-07-26T03:33:00,sdl,14.43
2023-07-26T03:34:00,sdl,14.45
2023-07-26T03:35:00,sdl,14.05
2023-07-26T03:36:00,sdl,14.03
2023-07-26T03:37:00,sdl,14.00
2023-07-26T03:38:00,sdl,14.05
2023-07-26T03:39:00,sdl,13.93
2023-07-26T03:40:00,sdl,13.83
2023-07-26T03:41:00,sdl,13.81
2023-07-26T03:42:00,sdl,13.85
2023-07-26T03:43:00,sdl,11.60
2023-07-26T03:44:00,sdl,10.72
2023-07-26T03:45:00,sdl,10.71
2023-07-26T03:46:00,sdl,11.04
2023-07-26T03:47:00,sdl,10.95
2023-07-26T03:48:00,sdl,11.49
2023-07-26T03:49:00,sdl,11.54
2023-07-26T03:50:00,sdl,11.30
2023-07-26T03:51:00,sdl,11.30
2023-07-26T03:52:00,sdl,11.56
2023-07-26T03:53:00,sdl,12.13
2023-07-26T03:54:00,sdl,12.17
2023-07-26T03:55:00,sdl,12.18
2023-07-26T03:56:00,sdl,12.03
2023-07-26T03:57:00,sdl,13.23
2023-07-26T03:58:00,sdl,12.02
2023-07-26T03:59:00,sdl,12.49
2023-07-26T04:00:00,sdl,12.25
2023-07-26T04:01:00,sdl,12.41
2023-07-26T04:02:00,sdl,12.38
2023-07-26T04:03:00,sdl,11.09
2023-07-26T04:04:00,sdl,11.09
2023-07-26T04:05:00,sdl,11.27
2023-07-26T04:06:00,sdl,11.33
2023-07-26T04:07:00,sdl,11.60
2023-07-26T04:08:00,sdl,10.92
2023-07-26T04:09:00,sdl,11.02
2023-07-26T04:10:00,sdl,13.21
2023-07-26T04:11:00,sdl,13.15
2023-07-26T04:12:00,sdl,14.06
2023-07-26T04:13:00,sdl,13.99
2023-07-26T04:14:00,sdl,14.01
2023-07-26T04:15:00,sdl,13.92
2023-07-26T04:16:00,sdl,13.96
2023-07-26T04:17:00,sdl,14.21
2023-07-26T04:18:00,sdl,13.79
2023-07-26T04:19:00,sdl,13.83
2023-07-26T04:20:00,sdl,13.93
2023-07-26T04:21:00,sdl,14.04
2023-07-26T04:22:00,sdl,14.04
2023-07-26T04:23:00,sdl,12.99
2023-07-26T04:24:00,sdl,12.99
2023-07-26T04:25:00,sdl,13.04
2023-07-26T04:26:00,sdl,13.01
2023-07-26T04:27:00,sdl,10.86
2023-07-26T04:28:00,sdl,10.80
2023-07-26T04:29:00,sdl,11.36
2023-07-26T04:30:00,sdl,11.18
2023-07-26T04:31:00,sdl,11.06
2023-07-26T04:32:00,sdl,11.76
2023-07-26T04:33:00,sdl,11.69
2023-07-26T04:34:00,sdl,11.67
2023-07-26T04:35:00,sdl,11.77
2023-07-26T04:36:00,sdl,12.83
2023-07-26T04:37:00,sdl,12.51
2023-07-26T04:38:00,sdl,12.59
2023-07-26T04:39:00,sdl,11.80
2023-07-26T04:40:00,sdl,11.80
2023-07-26T04:41:00,sdl,11.80
2023-07-26T04:42:00,sdl,13.08
2023-07-26T04:43:00,sdl,13.04
2023-07-26T04:44:00,sdl,13.03
2023-07-26T04:45:00,sdl,13.28
2023-07-26T04:46:00,sdl,12.90
2023-07-26T04:47:00,sdl,12.89
2023-07-26T04:48:00,sdl,12.82
2023-07-26T04:49:00,sdl,12.86
2023-07-26T04:50:00,sdl,12.79
2023-07-26T04:51:00,sdl,13.82
2023-07-26T04:52:00,sdl,13.74
2023-07-26T04:53:00,sdl,13.87
2023-07-26T04:54:00,sdl,11.71
2023-07-26T04:55:00,sdl,11.94
2023-07-26T04:56:00,sdl,11.88
2023-07-26T04:57:00,sdl,12.06
2023-07-26T04:58:00,sdl,12.31
2023-07-26T04:59:00,sdl,11.64
2023-07-26T05:00:00,sdl,11.79
2023-07-26T05:01:00,sdl,10.77
2023-07-26T05:02:00,sdl,10.88
2023-07-26T05:03:00,sdl,10.78
2023-07-26T05:04:00,sdl,11.17
2023-07-26T05:05:00,sdl,11.21
2023-07-26T05:06:00,sdl,10.87
2023-07-26T05:07:00,sdl,10.81
2023-07-26T05:08:00,sdl,11.00
2023-07-26T05:09:00,sdl,11.83
2023-07-26T05:10:00,sdl,11.86
2023-07-26T05:11:00,sdl,12.01
2023-07-26T05:12:00,sdl,12.25
2023-07-26T05:13:00,sdl,12.44
2023-07-26T05:14:00,sdl,11.97
2023-07-26T05:15:00,sdl,11.88
2023-07-26T05:16:00,sdl,11.92
2023-07-26T05:17:00,sdl,14.08
2023-07-26T05:18:00,sdl,13.25
2023-07-26T05:19:00,sdl,13.08
2023-07-26T05:20:00,sdl,13.34
2023-07-26T05:21:00,sdl,12.97
2023-07-26T05:22:00,sdl,13.20
2023-07-26T05:23:00,sdl,12.96
2023-07-26T05:24:00,sdl,12.97
2023-07-26T05:25:00,sdl,13.15
2023-07-26T05:26:00,sdl,14.32
2023-07-26T05:27:00,sdl,14.35
2023-07-26T05:28:00,sdl,13.99
2023-07-26T05:29:00,sdl,13.84
2023-07-26T05:30:00,sdl,13.83
2023-07-26T05:31:00,sdl,13.80
2023-07-26T05:32:00,sdl,13.77
2023-07-26T05:33:00,sdl,13.88
2023-07-26T05:34:00,sdl,13.74
2023-07-26T05:35:00,sdl,10.77
2023-07-26T05:36:00,sdl,10.83
2023-07-26T05:37:00,sdl,10.61
2023-07-26T05:38:00,sdl,10.68
2023-07-26T05:39:00,sdl,10.67
2023-07-26T05:40:00,sdl,10.65
2023-07-26T05:41:00,sdl,10.80
2023-07-26T05:42:00,sdl,10.74
2023-07-26T05:43:00,sdl,10.71
2023-07-26T05:44:00,sdl,11.57
2023-07-26T05:45:00,sdl,11.64
2023-07-26T05:46:00,sdl,11.59
2023-07-26T05:47:00,sdl,11.51
2023-07-26T05:48:00,sdl,11.48
2023-07-26T05:49:00,sdl,11.70
2023-07-26T05:50:00,sdl,11.53
2023-07-26T05:51:00,sdl,11.47
2023-07-26T05:52:00,sdl,11.44
2023-07-26T05:53:00,sdl,10.71
2023-07-26T05:54:00,sdl,11.04
2023-07-26T05:55:00,sdl,11.10
2023-07-26T05:56:00,sdl,12.93
2023-07-26T05:57:00,sdl,12.94
2023-07-26T05:58:00,sdl,12.82
2023-07-26T05:59:00,sdl,12.84
2023-07-26T06:00:00,sdl,12.90
2023-07-26T06:01:00,sdl,13.80
2023-07-26T06:02:00,sdl,13.84
2023-07-26T06:03:00,sdl,13.93
2023-07-26T06:04:00,sdl,13.70
2023-07-26T06:05:00,sdl,14.20
2023-07-26T06:06:00,sdl,13.55
2023-07-26T06:07:00,sdl,11.56
2023-07-26T06:08:00,sdl,10.46
2023-07-26T06:09:00,sdl,10.69
2023-07-26T06:10:00,sdl,10.58
2023-07-26T06:11:00,sdl,11.10
2023-07-26T06:12:00,sdl,10.56
2023-07-26T06:13:00,sdl,10.63
2023-07-26T06:14:00,sdl,10.67
2023-07-26T06:15:00,sdl,10.56
2023-07-26T06:16:00,sdl,11.56
2023-07-26T06:17:00,sdl,11.73
2023-07-26T06:18:00,sdl,12.25
2023-07-26T06:19:00,sdl,11.65
2023-07-26T06:20:00,sdl,11.65
2023-07-26T06:21:00,sdl,11.63
2023-07-26T06:22:00,sdl,11.87
2023-07-26T06:23:00,sdl,11.53
2023-07-26T06:24:00,sdl,14.08
2023-07-26T06:25:00,sdl,13.16
2023-07-26T06:26:00,sdl,12.73
2023-07-26T06:27:00,sdl,12.71
2023-07-26T06:28:00,sdl,12.68
2023-07-26T06:29:00,sdl,12.63
2023-07-26T06:30:00,sdl,12.79
2023-07-26T06:31:00,sdl,13.02
2023-07-26T06:32:00,sdl,14.10
2023-07-26T06:33:00,sdl,13.68
2023-07-26T06:34:00,sdl,13.66
2023-07-26T06:35:00,sdl,13.75
2023-07-26T06:36:00,sdl,14.21
2023-07-26T06:37:00,sdl,13.66
2023-07-26T06:38:00,sdl,13.75
2023-07-26T06:39:00,sdl,13.95
2023-07-26T06:40:00,sdl,13.82
2023-07-26T06:41:00,sdl,13.74
2023-07-26T06:42:00,sdl,12.88
2023-07-26T06:43:00,sdl,12.83
2023-07-26T06:44:00,sdl,10.93
2023-07-26T06:45:00,sdl,10.72
2023-07-26T06:46:00,sdl,10.76
2023-07-26T06:47:00,sdl,10.73
2023-07-26T06:48:00,sdl,10.75
2023-07-26T06:49:00,sdl,10.77
2023-07-26T06:50:00,sdl,11.76
2023-07-26T06:51:00,sdl,11.77
2023-07-26T06:52:00,sdl,11.80
2023-07-26T06:53:00,sdl,12.22
2023-07-26T06:54:00,sdl,12.20
2023-07-26T06:55:00,sdl,11.86
2023-07-26T06:56:00,sdl,12.02
2023-07-26T06:57:00,sdl,11.99
2023-07-26T06:58:00,sdl,11.37
2023-07-26T06:59:00,sdl,11.16
2023-07-26T07:00:00,sdl,11.05
2023-07-26T07:01:00,sdl,10.96
2023-07-26T07:02:00,sdl,11.00
2023-07-26T07:03:00,sdl,10.97
2023-07-26T07:04:00,sdl,11.00
2023-07-26T07:05:00,sdl,10.95
2023-07-26T07:06:00,sdl,10.91
2023-07-26T07:07:00,sdl,11.78
2023-07-26T07:08:00,sdl,11.88
2023-07-26T07:09:00,sdl,11.90
2023-07-26T07:10:00,sdl,11.89
2023-07-26T07:11:00,sdl,11.80
2023-07-26T07:12:00,sdl,12.01
2023-07-26T07:13:00,sdl,11.88
2023-07-26T07:14:00,sdl,11.94
2023-07-26T07:15:00,sdl,12.01
2023-07-26T07:16:00,sdl,11.42
2023-07-26T07:17:00,sdl,11.09
2023-07-26T07:18:00,sdl,11.18
2023-07-26T07:19:00,sdl,12.89
2023-07-26T07:20:00,sdl,13.17
2023-07-26T07:21:00,sdl,12.46
2023-07-26T07:22:00,sdl,12.40
2023-07-26T07:23:00,sdl,12.45
2023-07-26T07:24:00,sdl,12.49
2023-07-26T07:25:00,sdl,14.16
2023-07-26T07:26:00,sdl,13.97
2023-07-26T07:27:00,sdl,13.59
2023-07-26T07:28:00,sdl,13.66
2023-07-26T07:29:00,sdl,13.73
2023-07-26T07:30:00,sdl,13.64
2023-07-26T07:31:00,sdl,13.90
2023-07-26T07:32:00,sdl,14.05
2023-07-26T07:33:00,sdl,13.85
2023-07-26T07:34:00,sdl,11.03
2023-07-26T07:35:00,sdl,12.02
2023-07-26T07:36:00,sdl,11.16
2023-07-26T07:37:00,sdl,10.84
2023-07-26T07:38:00,sdl,10.96
2023-07-26T07:39:00,sdl,11.01
2023-07-26T07:40:00,sdl,10.73
2023-07-26T07:41:00,sdl,10.75
2023-07-26T07:42:00,sdl,10.71
2023-07-26T07:43:00,sdl,11.18
2023-07-26T07:44:00,sdl,11.65
2023-07-26T07:45:00,sdl,11.71
2023-07-26T07:46:00,sdl,11.75
2023-07-26T07:47:00,sdl,11.67
2023-07-26T07:48:00,sdl,14.32
2023-07-26T07:49:00,sdl,14.64
2023-07-26T07:50:00,sdl,14.74
2023-07-26T07:51:00,sdl,14.38
2023-07-26T07:52:00,sdl,14.55
2023-07-26T07:53:00,sdl,14.63
2023-07-26T07:54:00,sdl,13.84
2023-07-26T07:55:00,sdl,13.44
2023-07-26T07:56:00,sdl,13.79
2023-07-26T07:57:00,sdl,13.79
2023-07-26T07:58:00,sdl,14.41
2023-07-26T07:59:00,sdl,14.20
2023-07-26T08:00:00,sdl,14.73
2023-07-26T08:01:00,sdl,14.85
2023-07-26T08:02:00,sdl,12.64
2023-07-26T08:03:00,sdl,12.85
2023-07-26T08:04:00,sdl,12.66
2023-07-26T08:05:00,sdl,12.86
2023-07-26T08:06:00,sdl,12.87
2023-07-26T08:07:00,sdl,12.70
2023-07-26T08:08:00,sdl,12.80
2023-07-26T08:09:00,sdl,12.96
2023-07-26T08:10:00,sdl,11.44
2023-07-26T08:11:00,sdl,11.40
2023-07-26T08:12:00,sdl,10.58
2023-07-26T08:13:00,sdl,11.59
2023-07-26T08:14:00,sdl,10.88
2023-07-26T08:15:00,sdl,11.81
2023-07-26T08:16:00,sdl,12.64
2023-07-26T08:17:00,sdl,12.71
2023-07-26T08:18:00,sdl,12.72
2023-07-26T08:19:00,sdl,12.91
2023-07-26T08:20:00,sdl,12.89
2023-07-26T08:21:00,sdl,12.79
2023-07-26T08:22:00,sdl,12.84
2023-07-26T08:23:00,sdl,12.98
2023-07-26T08:24:00,sdl,13.23
2023-07-26T08:25:00,sdl,13.28
2023-07-26T08:26:00,sdl,13.30
2023-07-26T08:27:00,sdl,13.27
2023-07-26T08:28:00,sdl,13.20
2023-07-26T08:29:00,sdl,13.60
2023-07-26T08:30:00,sdl,15.45
2023-07-26T08:31:00,sdl,14.27
2023-07-26T08:32:00,sdl,14.23
2023-07-26T08:33:00,sdl,13.82
2023-07-26T08:34:00,sdl,13.59
2023-07-26T08:35:00,sdl,13.45
2023-07-26T08:36:00,sdl,13.58
2023-07-26T08:37:00,sdl,13.55
2023-07-26T08:38:00,sdl,13.50
2023-07-26T08:39:00,sdl,14.83
2023-07-26T08:40:00,sdl,14.81
2023-07-26T08:41:00,sdl,15.29
2023-07-26T08:42:00,sdl,14.74
2023-07-26T08:43:00,sdl,14.76
2023-07-26T08:44:00,sdl,14.94
2023-07-26T08:45:00,sdl,15.69
2023-07-26T08:46:00,sdl,14.79
2023-07-26T08:47:00,sdl,14.97
2023-07-26T08:48:00,sdl,12.79
2023-07-26T08:49:00,sdl,12.84
2023-07-26T08:50:00,sdl,12.79
2023-07-26T08:51:00,sdl,13.28
2023-07-26T08:52:00,sdl,13.25
2023-07-26T08:53:00,sdl,13.30
2023-07-26T08:54:00,sdl,12.43
2023-07-26T08:55:00,sdl,12.38
2023-07-26T08:56:00,sdl,13.42
2023-07-26T08:57:00,sdl,12.60
2023-07-26T08:58:00,sdl,12.76
2023-07-26T08:59:00,sdl,13.01
2023-07-26T09:00:00,sdl,13.62
2023-07-26T09:01:00,sdl,14.65
2023-07-26T09:02:00,sdl,16.60
2023-07-26T09:03:00,sdl,17.69
2023-07-26T09:04:00,sdl,17.76
2023-07-26T09:05:00,sdl,17.26
2023-07-26T09:06:00,sdl,17.19
2023-07-26T09:07:00,sdl,18.95
2023-07-26T09:08:00,sdl,18.56
2023-07-26T09:09:00,sdl,19.99
2023-07-26T09:10:00,sdl,19.67
2023-07-26T09:11:00,sdl,19.65
2023-07-26T09:12:00,sdl,20.44
2023-07-26T09:13:00,sdl,20.39
2023-07-26T09:14:00,sdl,18.28
2023-07-26T09:15:00,sdl,18.27
2023-07-26T09:16:00,sdl,18.23
2023-07-26T09:17:00,sdl,18.00
2023-07-26T09:18:00,sdl,18.25
2023-07-26T09:19:00,sdl,18.17
2023-07-26T09:20:00,sdl,18.20
2023-07-26T09:21:00,sdl,18.14
2023-07-26T09:22:00,sdl,18.06
2023-07-26T09:23:00,sdl,17.84
2023-07-26T09:24:00,sdl,18.12
2023-07-26T09:25:00,sdl,18.08
2023-07-26T09:26:00,sdl,18.63
2023-07-26T09:27:00,sdl,18.46
2023-07-26T09:28:00,sdl,18.09
2023-07-26T09:29:00,sdl,18.20
2023-07-26T09:30:00,sdl,18.35
2023-07-26T09:31:00,sdl,18.89
2023-07-26T09:32:00,sdl,20.82
2023-07-26T09:33:00,sdl,20.33
2023-07-26T09:34:00,sdl,21.00
2023-07-26T09:35:00,sdl,24.73
2023-07-26T09:36:00,sdl,21.14
2023-07-26T09:37:00,sdl,21.19
2023-07-26T09:38:00,sdl,19.92
2023-07-26T09:39:00,sdl,23.34
2023-07-26T09:40:00,sdl,23.52
2023-07-26T09:41:00,sdl,23.86
2023-07-26T09:42:00,sdl,23.55
2023-07-26T09:43:00,sdl,23.61
2023-07-26T09:44:00,sdl,24.09
2023-07-26T09:45:00,sdl,23.78
2023-07-26T09:46:00,sdl,24.37
2023-07-26T09:47:00,sdl,24.04
2023-07-26T09:48:00,sdl,23.90
2023-07-26T09:49:00,sdl,23.87
2023-07-26T09:50:00,sdl,23.75
2023-07-26T09:51:00,sdl,24.19
2023-07-26T09:52:00,sdl,24.09
2023-07-26T09:53:00,sdl,21.99
2023-07-26T09:54:00,sdl,21.97
2023-07-26T09:55:00,sdl,22.09
2023-07-26T09:56:00,sdl,18.76
2023-07-26T09:57:00,sdl,18.24
2023-07-26T09:58:00,sdl,18.58
2023-07-26T09:59:00,sdl,19.42
2023-07-26T10:00:00,sdl,22.03
2023-07-26T10:01:00,sdl,22.26
2023-07-26T10:02:00,sdl,21.86
2023-07-26T10:03:00,sdl,22.18
2023-07-26T10:04:00,sdl,22.45
2023-07-26T10:05:00,sdl,22.50
2023-07-26T10:06:00,sdl,22.78
2023-07-26T10:07:00,sdl,22.04
2023-07-26T10:08:00,sdl,23.17
2023-07-26T10:09:00,sdl,22.99
2023-07-26T10:10:00,sdl,22.77
2023-07-26T10:11:00,sdl,22.80
2023-07-26T10:12:00,sdl,23.69
2023-07-26T10:13:00,sdl,23.00
2023-07-26T10:14:00,sdl,25.18
2023-07-26T10:15:00,sdl,24.79
2023-07-26T10:16:00,sdl,25.10
2023-07-26T10:17:00,sdl,25.23
2023-07-26T10:18:00,sdl,24.37
2023-07-26T10:19:00,sdl,24.80
2023-07-26T10:20:00,sdl,25.14
2023-07-26T10:21:00,sdl,24.95
2023-07-26T10:22:00,sdl,24.82
2023-07-26T10:23:00,sdl,24.37
2023-07-26T10:24:00,sdl,24.13
2023-07-26T10:25:00,sdl,23.85
2023-07-26T10:26:00,sdl,23.82
2023-07-26T10:27:00,sdl,23.98
2023-07-26T10:28:00,sdl,23.87
2023-07-26T10:29:00,sdl,23.81
2023-07-26T10:30:00,sdl,24.00
2023-07-26T10:31:00,sdl,24.03
2023-07-26T10:32:00,sdl,22.33
2023-07-26T10:33:00,sdl,22.17
2023-07-26T10:34:00,sdl,22.36
2023-07-26T10:35:00,sdl,22.46
2023-07-26T10:36:00,sdl,22.26
2023-07-26T10:37:00,sdl,22.21
2023-07-26T10:38:00,sdl,22.06
2023-07-26T10:39:00,sdl,22.12
2023-07-26T10:40:00,sdl,22.01
2023-07-26T10:41:00,sdl,22.04
2023-07-26T10:42:00,sdl,22.14
2023-07-26T10:43:00,sdl,22.16
2023-07-26T10:44:00,sdl,23.84
2023-07-26T10:45:00,sdl,23.80
2023-07-26T10:46:00,sdl,24.08
2023-07-26T10:47:00,sdl,24.08
2023-07-26T10:48:00,sdl,24.01
2023-07-26T10:49:00,sdl,24.59
2023-07-26T10:50:00,sdl,24.27
2023-07-26T10:51:00,sdl,24.35
2023-07-26T10:52:00,sdl,24.22
2023-07-26T10:53:00,sdl,24.16
2023-07-26T10:54:00,sdl,24.25
2023-07-26T10:55:00,sdl,24.26
2023-07-26T10:56:00,sdl,24.18
2023-07-26T10:57:00,sdl,24.14
2023-07-26T10:58:00,sdl,24.01
2023-07-26T10:59:00,sdl,23.84
2023-07-26T11:00:00,sdl,23.54
2023-07-26T11:01:00,sdl,24.20
2023-07-26T11:02:00,sdl,21.53
2023-07-26T11:03:00,sdl,18.54
2023-07-26T11:04:00,sdl,16.32
2023-07-26T11:05:00,sdl,15.33
2023-07-26T11:06:00,sdl,15.61
2023-07-26T11:07:00,sdl,15.93
2023-07-26T11:08:00,sdl,15.93
2023-07-26T11:09:00,sdl,15.49
2023-07-26T11:10:00,sdl,15.72
2023-07-26T11:11:00,sdl,15.49
2023-07-26T11:12:00,sdl,16.11
2023-07-26T11:13:00,sdl,15.40
2023-07-26T11:14:00,sdl,15.57
2023-07-26T11:15:00,sdl,15.44
2023-07-26T11:16:00,sdl,15.75
2023-07-26T11:17:00,sdl,15.87
2023-07-26T11:18:00,sdl,18.00
2023-07-26T11:19:00,sdl,17.31
2023-07-26T11:20:00,sdl,17.61
2023-07-26T11:21:00,sdl,17.69
2023-07-26T11:22:00,sdl,17.75
2023-07-26T11:23:00,sdl,17.72
2023-07-26T11:24:00,sdl,17.66
2023-07-26T11:25:00,sdl,17.35
2023-07-26T11:26:00,sdl,17.38
2023-07-26T11:27:00,sdl,17.27
2023-07-26T11:28:00,sdl,17.61
2023-07-26T11:29:00,sdl,18.26
2023-07-26T11:30:00,sdl,18.04
2023-07-26T11:31:00,sdl,17.88
2023-07-26T11:32:00,sdl,17.79
2023-07-26T11:33:00,sdl,17.43
2023-07-26T11:34:00,sdl,17.50
2023-07-26T11:35:00,sdl,17.93
2023-07-26T11:36:00,sdl,17.98
2023-07-26T11:37:00,sdl,17.82
2023-07-26T11:38:00,sdl,17.82
2023-07-26T11:39:00,sdl,17.97
2023-07-26T11:40:00,sdl,18.09
2023-07-26T11:41:00,sdl,17.49
2023-07-26T11:42:00,sdl,17.56
2023-07-26T11:43:00,sdl,18.59
2023-07-26T11:44:00,sdl,17.90
2023-07-26T11:45:00,sdl,17.72
2023-07-26T11:46:00,sdl,17.78
2023-07-26T11:47:00,sdl,17.67
2023-07-26T11:48:00,sdl,17.43
2023-07-26T11:49:00,sdl,15.43
2023-07-26T11:50:00,sdl,15.24
2023-07-26T11:51:00,sdl,15.50
2023-07-26T11:52:00,sdl,15.63
2023-07-26T11:53:00,sdl,15.73
2023-07-26T11:54:00,sdl,15.66
2023-07-26T11:55:00,sdl,15.64
2023-07-26T11:56:00,sdl,15.22
2023-07-26T11:57:00,sdl,15.63
2023-07-26T11:58:00,sdl,15.55
2023-07-26T11:59:00,sdl,15.64
2023-07-26T12:00:00,sdl,15.62
2023-07-26T12:01:00,sdl,15.65
2023-07-26T12:02:00,sdl,15.61
2023-07-26T12:03:00,sdl,14.70
2023-07-26T12:04:00,sdl,14.68
2023-07-26T12:05:00,sdl,15.27
2023-07-26T12:06:00,sdl,14.60
2023-07-26T12:07:00,sdl,16.76
2023-07-26T12:08:00,sdl,16.62
2023-07-26T12:09:00,sdl,15.27
2023-07-26T12:10:00,sdl,17.50
2023-07-26T12:11:00,sdl,17.68
2023-07-26T12:12:00,sdl,17.35
2023-07-26T12:13:00,sdl,17.29
2023-07-26T12:14:00,sdl,17.01
2023-07-26T12:15:00,sdl,17.31
2023-07-26T12:16:00,sdl,17.20
2023-07-26T12:17:00,sdl,17.29
2023-07-26T12:18:00,sdl,17.29
2023-07-26T12:19:00,sdl,17.23
2023-07-26T12:20:00,sdl,16.84
2023-07-26T12:21:00,sdl,16.92
2023-07-26T12:22:00,sdl,17.49
2023-07-26T12:23:00,sdl,17.37
2023-07-26T12:24:00,sdl,17.60
2023-07-26T12:25:00,sdl,17.51
2023-07-26T12:26:00,sdl,17.45
2023-07-26T12:27:00,sdl,17.47
2023-07-26T12:28:00,sdl,17.47
2023-07-26T12:29:00,sdl,17.06
2023-07-26T12:30:00,sdl,17.09
2023-07-26T12:31:00,sdl,16.26
2023-07-26T12:32:00,sdl,15.96
2023-07-26T12:33:00,sdl,15.35
2023-07-26T12:34:00,sdl,15.30
2023-07-26T12:35:00,sdl,16.29
2023-07-26T12:36:00,sdl,15.79
2023-07-26T12:37:00,sdl,16.03
2023-07-26T12:38:00,sdl,16.42
2023-07-26T12:39:00,sdl,15.95
2023-07-26T12:40:00,sdl,15.57
2023-07-26T12:41:00,sdl,15.93
2023-07-26T12:42:00,sdl,15.99
2023-07-26T12:43:00,sdl,18.15
2023-07-26T12:44:00,sdl,18.31
2023-07-26T12:45:00,sdl,17.93
2023-07-26T12:46:00,sdl,17.60
2023-07-26T12:47:00,sdl,17.64
2023-07-26T12:48:00,sdl,18.04
2023-07-26T12:49:00,sdl,17.68
2023-07-26T12:50:00,sdl,17.76
2023-07-26T12:51:00,sdl,17.92
2023-07-26T12:52:00,sdl,17.72
2023-07-26T12:53:00,sdl,17.67
2023-07-26T12:54:00,sdl,17.33
2023-07-26T12:55:00,sdl,17.32
2023-07-26T12:56:00,sdl,17.62
2023-07-26T12:57:00,sdl,18.03
2023-07-26T12:58:00,sdl,15.46
2023-07-26T12:59:00,sdl,15.45
2023-07-26T13:00:00,sdl,15.60
2023-07-26T13:01:00,sdl,15.15
2023-07-26T13:02:00,sdl,15.83
2023-07-26T13:03:00,sdl,15.15
2023-07-26T13:04:00,sdl,16.02
2023-07-26T13:05:00,sdl,15.93
2023-07-26T13:06:00,sdl,15.31
2023-07-26T13:07:00,sdl,15.20
2023-07-26T13:08:00,sdl,15.42
2023-07-26T13:09:00,sdl,15.19
2023-07-26T13:10:00,sdl,17.37
2023-07-26T13:11:00,sdl,18.53
2023-07-26T13:12:00,sdl,18.28
2023-07-26T13:13:00,sdl,18.60
2023-07-26T13:14:00,sdl,17.60
2023-07-26T13:15:00,sdl,17.66
2023-07-26T13:16:00,sdl,17.64
2023-07-26T13:17:00,sdl,18.57
2023-07-26T13:18:00,sdl,18.24
2023-07-26T13:19:00,sdl,18.87
2023-07-26T13:20:00,sdl,18.41